Simultaneous Nadir Overpasses (SNOs) Predictions

Prediction of SNOs between LANDSAT-8 and NOAA-19 Satellite Orbit:

Table of predicted SNOs for the next 14.0 days since TLE Epoch: 8/21/2015
Index Date (LANDSAT-8) Time (LANDSAT-8) Lat,Lon (LANDSAT-8) SZA (LANDSAT-8 ) Date (NOAA-19) Time (NOAA-19) Lat,Lon (NOAA-19) SZA (NOAA-19 ) Distance(km) Time Diff (sec)
1 08/23/2015 00:58:40 -73.50, -12.60 118.20 08/23/2015 00:58:16 -73.50, -12.60 118.19 0.46 24
2 08/23/2015 01:48:07 73.42, 154.86 61.73 08/23/2015 01:49:11 73.41, 154.87 61.74 0.29 64
3 08/25/2015 05:42:52 -73.83, -82.96 117.11 08/25/2015 05:41:41 -73.85, -84.24 117.10 39.77 71
4 08/25/2015 06:32:24 73.48, 83.94 62.55 08/25/2015 06:32:30 73.47, 83.95 62.54 1.40 6
5 08/27/2015 11:16:41 73.55, 13.00 63.38 08/27/2015 11:15:49 73.53, 13.02 63.37 1.77 52
6 08/27/2015 12:06:11 -73.43,-179.61 116.73 08/27/2015 12:06:53 -73.45,-179.56 116.70 2.64 42
7 08/29/2015 16:50:28 -73.49, 109.45 115.89 08/29/2015 16:50:12 -73.52, 109.48 115.86 3.48 16
8 08/29/2015 17:39:54 73.46, -82.99 64.09 08/29/2015 17:41:07 73.42, -83.02 64.06 3.56 73
9 08/31/2015 21:34:44 -73.60, 38.61 114.99 08/31/2015 21:33:31 -73.60, 38.51 114.99 3.21 73
10 08/31/2015 22:24:11 73.51,-153.95 64.93 08/31/2015 22:24:26 73.49,-153.97 64.92 2.02 15
11 09/03/2015 03:08:28 73.56, 135.09 65.79 09/03/2015 03:07:45 73.56, 135.08 65.79 0.55 43




NCC Satellite Simultaneous Nadir Overpasses (SNOs) Prediction Service
